Weather reports worldwide

Advertisment
Boulmer, United Kingdom (3240): temperature & dewpoint: 18.08.2017 00:00:00 - 24.08.2017 00:00:00 (BST)Boulmer, United Kingdom (3240): wind speed & gusts: 18.08.2017 00:00:00 - 24.08.2017 00:00:00 (BST)Boulmer, United Kingdom (3240): wind direction: 18.08.2017 00:00:00 - 24.08.2017 00:00:00 (BST)Boulmer, United Kingdom (3240): reduced air pressure: 18.08.2017 00:00:00 - 24.08.2017 00:00:00 (BST)Boulmer, United Kingdom (3240): visibility: 18.08.2017 00:00:00 - 24.08.2017 00:00:00 (BST)Boulmer, United Kingdom (3240): sunshine duration: 18.08.2017 00:00:00 - 24.08.2017 00:00:00 (BST)Boulmer, United Kingdom (3240): precipitation: 18.08.2017 00:00:00 - 24.08.2017 00:00:00 (BST)
Date & Time tt [°C] td [°C] ff [km/h] ff [kn] fx [km/h] fx [kn] dd ppp [hPa] vv [km] sd [min] rr [mm]
24.08.2017 00:00:00 - - - - - - - - - - -
23.08.2017 23:00:00 14,2 11,3 16 9 - - W 1010,5 10 0 0,0
23.08.2017 22:00:00 14,9 11,4 21 11 - - WSW 1010,4 10 0 0,0
23.08.2017 21:00:00 15,4 11,5 21 11 - - WSW 1010,2 10 0 0,0
23.08.2017 20:00:00 16,8 12,0 21 11 - - WSW 1009,8 50 6 0,0
23.08.2017 19:00:00 17,6 11,5 22 12 - - WSW 1009,6 10 0 0,0
23.08.2017 18:00:00 18,7 12,6 24 13 - - WSW 1009,7 10 12 0,0
23.08.2017 17:00:00 15,4 14,9 11 6 - - SE 1010,1 2,4 0 0,0
23.08.2017 16:00:00 16,2 16,0 4 2 - - SSE 1009,9 2,4 0 0,2
23.08.2017 15:00:00 15,8 15,4 9 5 - - SE 1010,4 2,0 0 0,0
23.08.2017 14:00:00 15,3 15,1 2 1 - - W 1010,6 2,9 0 1,2
23.08.2017 13:00:00 14,7 14,1 13 7 - - SE 1010,9 3,6 0 0,0
23.08.2017 12:00:00 15,0 14,5 16 9 - - SSE 1010,9 4,0 0 0,0
23.08.2017 11:00:00 14,6 14,4 16 9 - - SSE 1011,0 3,5 0 0,0
23.08.2017 10:00:00 14,9 14,8 18 10 - - SSE 1011,3 4,0 0 0,0
23.08.2017 09:00:00 14,5 14,4 18 10 - - SSE 1011,4 3,9 0 0,0
23.08.2017 08:00:00 14,5 14,4 16 9 - - S 1011,7 4,5 0 0,0
23.08.2017 07:00:00 14,7 14,6 22 12 - - SE 1011,9 5 0 0,0
23.08.2017 06:00:00 14,5 14,4 18 10 - - SSE 1012,2 4,4 0 0,4
23.08.2017 05:00:00 14,3 14,2 16 9 - - SSE 1012,7 2,0 0 0,0
23.08.2017 04:00:00 14,2 14,0 21 11 - - SSE 1013,2 1,7 0 0,6
23.08.2017 03:00:00 14,3 14,1 18 10 - - SSE 1014,2 1,9 0 0,2
23.08.2017 02:00:00 14,5 14,1 16 9 - - SSE 1014,7 3,1 0 0,0
23.08.2017 01:00:00 14,6 14,1 13 7 - - SSE 1015,0 5 - 0,0
23.08.2017 00:00:00 14,7 14,0 16 9 - - SSE 1015,5 6 0 0,0
22.08.2017 23:00:00 15,0 14,0 16 9 - - SSE 1016,1 8 0 0,0
22.08.2017 22:00:00 15,0 13,8 13 7 - - SSE 1016,5 10 0 0,0
22.08.2017 21:00:00 15,2 14,0 5 3 - - SE 1017,0 10 0 0,0
22.08.2017 20:00:00 15,1 14,5 5 3 - - SE 1017,1 8 0 0,0
22.08.2017 19:00:00 15,0 14,7 8 4 - - ESE 1017,2 2,8 0 0,0
22.08.2017 18:00:00 15,0 14,7 8 4 - - SE 1017,5 0,7 0 0,0
22.08.2017 17:00:00 15,5 15,0 11 6 - - SE 1017,8 3,4 0 0,0
22.08.2017 16:00:00 16,2 15,4 13 7 - - SSE 1018,2 4,1 0 0,0
22.08.2017 15:00:00 15,6 14,8 13 7 - - SE 1018,7 3,6 0 0,0
22.08.2017 14:00:00 15,9 14,8 13 7 - - ESE 1019,3 4,7 0 0,0
22.08.2017 13:00:00 16,0 15,0 11 6 - - E 1019,6 5 0 0,0
22.08.2017 12:00:00 16,3 14,9 9 5 - - E 1019,6 6 0 0,0
22.08.2017 11:00:00 15,8 14,8 11 6 - - SSE 1020,0 6 0 0,0
22.08.2017 10:00:00 15,2 14,8 11 6 - - SE 1020,0 5 0 0,0
22.08.2017 09:00:00 14,6 14,3 8 4 - - E 1020,1 1,4 0 0,0
22.08.2017 08:00:00 14,1 13,7 5 3 - - ENE 1020,0 4,2 0 0,0
22.08.2017 07:00:00 12,9 12,5 2 1 - - NNW 1019,6 10 0 0,0
22.08.2017 06:00:00 13,1 12,7 4 2 - - SSW 1019,3 9 0 0,0
22.08.2017 05:00:00 13,2 12,7 5 3 - - SE 1019,5 3,6 0 0,0
22.08.2017 04:00:00 13,4 13,0 0 0 - - N 1019,5 9 0 0,0
22.08.2017 03:00:00 13,5 13,1 2 1 - - SSE 1019,8 6 0 0,0
22.08.2017 02:00:00 13,6 13,0 2 1 - - SE 1019,7 8 0 0,0
22.08.2017 01:00:00 13,9 13,2 2 1 - - ESE 1019,9 8 - 0,0
22.08.2017 00:00:00 13,8 13,2 4 2 - - S 1020,0 10 0 0,0
21.08.2017 23:00:00 14,1 13,1 5 3 - - S 1019,8 10 0 0,0
21.08.2017 22:00:00 14,4 13,0 2 1 - - S 1020,1 10 0 0,0
21.08.2017 21:00:00 14,6 13,0 5 3 - - SSE 1020,0 10 0 0,0
21.08.2017 20:00:00 14,8 13,1 8 4 - - SSE 1020,1 10 0 0,0
21.08.2017 19:00:00 15,1 13,5 13 7 - - SSE 1020,1 10 0 0,0
21.08.2017 18:00:00 15,3 13,3 16 9 - - SSE 1020,2 10 0 0,0
21.08.2017 17:00:00 15,8 13,0 16 9 - - SSE 1020,3 25 24 0,0
21.08.2017 16:00:00 16,5 12,6 15 8 - - SE 1020,3 10 54 0,0
21.08.2017 15:00:00 17,4 13,7 16 9 - - SE 1020,6 10 60 0,0
21.08.2017 14:00:00 15,9 12,5 15 8 - - SE 1020,9 18 60 0,0
21.08.2017 13:00:00 15,5 11,9 16 9 - - SE 1021,3 10 60 0,0
21.08.2017 12:00:00 14,8 10,5 16 9 - - SSE 1021,8 10 60 0,0
21.08.2017 11:00:00 15,1 10,3 15 8 - - SSE 1021,7 10 60 0,0
21.08.2017 10:00:00 15,1 10,5 11 6 - - SSE 1021,9 10 54 0,0
21.08.2017 09:00:00 13,9 10,4 5 3 - - SSW 1021,8 10 60 0,0
21.08.2017 08:00:00 11,1 9,3 9 5 - - WSW 1021,9 10 42 0,0
21.08.2017 07:00:00 9,5 8,0 8 4 - - W 1021,7 10 0 0,0
21.08.2017 06:00:00 7,1 6,5 8 4 - - W 1021,4 10 0 0,0
21.08.2017 05:00:00 7,3 6,8 8 4 - - SW 1021,7 10 0 0,0
21.08.2017 04:00:00 7,4 6,4 4 2 - - WNW 1021,5 10 0 0,0
21.08.2017 03:00:00 8,4 6,7 4 2 - - WNW 1021,6 10 0 0,0
21.08.2017 02:00:00 9,9 7,7 9 5 - - W 1021,7 10 0 0,0
21.08.2017 01:00:00 10,0 8,1 13 7 - - W 1022,1 10 - 0,0
21.08.2017 00:00:00 10,9 9,0 11 6 - - W 1022,0 10 0 0,0
20.08.2017 23:00:00 10,8 10,2 5 3 - - W 1021,6 10 0 0,0
20.08.2017 22:00:00 12,0 11,2 5 3 - - WSW 1021,8 10 0 0,0
20.08.2017 21:00:00 12,5 11,0 8 4 - - S 1021,6 10 0 0,0
20.08.2017 20:00:00 14,1 11,7 5 3 - - SE 1021,4 10 36 0,0
20.08.2017 19:00:00 15,2 10,8 9 5 - - ESE 1021,1 10 42 0,0
20.08.2017 18:00:00 15,5 10,2 13 7 - - SE 1021,1 45 0 0,0
20.08.2017 17:00:00 15,3 10,7 9 5 - - E 1020,9 10 0 0,0
20.08.2017 16:00:00 15,3 11,1 9 5 - - E 1021,0 10 0 0,0
20.08.2017 15:00:00 15,3 10,8 8 4 - - E 1020,8 10 0 0,0
20.08.2017 14:00:00 16,0 9,6 13 7 - - NNE 1020,6 10 12 0,0
20.08.2017 13:00:00 17,0 10,2 9 5 - - N 1020,1 10 12 0,0
20.08.2017 12:00:00 18,4 8,6 16 9 - - WNW 1019,4 10 54 0,0
20.08.2017 11:00:00 18,1 9,5 22 12 - - WNW 1019,1 10 60 0,0
20.08.2017 10:00:00 17,0 9,5 26 14 - - W 1018,8 10 60 0,0
20.08.2017 09:00:00 15,6 10,2 26 14 - - W 1018,3 10 60 0,0
20.08.2017 08:00:00 13,7 9,8 29 16 - - W 1017,6 10 30 0,0
20.08.2017 07:00:00 12,9 9,7 21 11 - - W 1017,3 10 0 0,0
20.08.2017 06:00:00 12,0 9,5 22 12 - - WSW 1016,6 10 0 0,0
20.08.2017 05:00:00 11,8 9,3 21 11 - - WSW 1016,2 10 0 0,0
20.08.2017 04:00:00 12,1 9,2 22 12 - - WSW 1016,0 10 0 0,0
20.08.2017 03:00:00 13,3 9,4 24 13 - - W 1015,2 10 0 0,0
20.08.2017 02:00:00 13,6 9,4 29 16 - - W 1014,5 10 0 0,0
20.08.2017 01:00:00 14,0 9,8 31 17 - - W 1014,0 45 - 0,0
20.08.2017 00:00:00 14,1 10,1 26 14 - - W 1013,7 10 0 0,0
19.08.2017 23:00:00 14,1 10,0 24 13 - - WSW 1013,1 10 0 0,0
19.08.2017 22:00:00 14,5 9,9 22 12 - - W 1012,4 10 0 0,0
19.08.2017 21:00:00 15,3 10,3 29 16 48 26 W 1011,4 10 0 0,0
19.08.2017 20:00:00 15,5 10,5 34 18 54 29 W 1010,6 10 6 0,0
19.08.2017 19:00:00 15,9 10,4 31 17 59 32 W 1009,7 10 18 0,0
19.08.2017 18:00:00 16,3 10,0 41 22 67 36 WSW 1009,2 10 42 0,0
19.08.2017 17:00:00 18,1 9,9 37 20 63 34 WSW 1008,7 10 36 0,0
19.08.2017 16:00:00 17,9 10,2 37 20 55 30 WSW 1008,7 10 12 0,0
19.08.2017 15:00:00 18,3 9,0 37 20 59 32 WSW 1008,4 10 36 0,0
19.08.2017 14:00:00 18,4 9,8 35 19 52 28 WSW 1008,0 10 36 0,0
19.08.2017 13:00:00 17,8 8,2 35 19 63 34 WSW 1007,5 10 60 0,0
19.08.2017 12:00:00 17,6 8,0 34 18 55 30 WSW 1007,3 10 60 0,0
19.08.2017 11:00:00 16,2 7,3 37 20 57 31 W 1006,9 10 60 0,0
19.08.2017 10:00:00 15,3 7,6 31 17 50 27 WSW 1007,1 10 60 0,0
19.08.2017 09:00:00 14,4 8,7 29 16 46 25 WSW 1006,5 10 48 0,0
19.08.2017 08:00:00 12,9 8,9 21 11 - - WSW 1006,5 10 48 0,0
19.08.2017 07:00:00 11,9 8,6 16 9 - - WSW 1006,4 10 30 0,0
19.08.2017 06:00:00 11,8 8,4 21 11 - - WSW 1005,9 10 0 0,0
19.08.2017 05:00:00 12,2 7,9 21 11 48 26 WSW 1005,5 10 0 0,0
19.08.2017 04:00:00 13,0 7,7 31 17 - - W 1004,9 10 0 0,0
19.08.2017 03:00:00 13,8 8,6 35 19 52 28 W 1004,0 10 0 0,0
19.08.2017 02:00:00 13,9 10,1 21 11 46 25 W 1003,7 10 0 0,0
19.08.2017 01:00:00 13,1 10,5 15 8 - - SW 1003,6 10 - 0,0
19.08.2017 00:00:00 12,9 10,4 18 10 - - SW 1003,5 10 0 0,0
18.08.2017 23:00:00 12,4 10,0 21 11 - - SW 1003,6 10 0 0,0
18.08.2017 22:00:00 12,4 9,6 28 15 - - SW 1003,2 10 0 0,0
18.08.2017 21:00:00 13,0 9,8 22 12 - - SW 1003,5 10 0 0,0
18.08.2017 20:00:00 12,3 9,4 21 11 48 26 SW 1003,5 10 0 0,0
18.08.2017 19:00:00 14,5 8,9 29 16 50 27 SW 1003,6 10 12 0,0
18.08.2017 18:00:00 15,4 8,1 35 19 52 28 SW 1003,3 10 48 0,0
18.08.2017 17:00:00 15,3 9,0 35 19 54 29 SW 1003,2 30 30 0,0
18.08.2017 16:00:00 15,6 8,7 35 19 54 29 WSW 1002,9 10 36 0,0
18.08.2017 15:00:00 17,2 8,5 37 20 55 30 WSW 1002,3 29 42 0,0
18.08.2017 14:00:00 17,5 9,1 37 20 59 32 SW 1002,4 10 48 0,0
18.08.2017 13:00:00 16,9 8,8 28 15 54 29 SW 1002,1 10 42 0,0
18.08.2017 12:00:00 17,3 9,9 29 16 - - WSW 1002,2 35 18 0,0
18.08.2017 11:00:00 15,4 8,7 34 18 54 29 WSW 1002,3 10 42 0,0
18.08.2017 10:00:00 15,2 9,7 39 21 55 30 WSW 1001,8 10 54 0,0
18.08.2017 09:00:00 14,4 10,9 31 17 - - WSW 1001,6 10 60 0,0
18.08.2017 08:00:00 14,3 12,1 24 13 - - SW 1000,8 10 24 0,0
18.08.2017 07:00:00 12,9 12,4 8 4 - - S 1000,8 10 0 0,2
18.08.2017 06:00:00 12,6 11,9 8 4 - - SSW 1000,9 10 0 0,6
18.08.2017 05:00:00 13,3 11,2 16 9 - - S 1001,0 10 0 0,0
18.08.2017 04:00:00 13,5 11,3 15 8 - - SSE 1001,4 10 0 0,0
18.08.2017 03:00:00 13,7 11,6 22 12 - - SSE 1002,1 10 0 0,0
18.08.2017 02:00:00 13,4 11,2 13 7 - - S 1002,7 10 0 0,0
18.08.2017 01:00:00 13,8 11,0 8 4 - - SSE 1003,7 10 - 0,0
18.08.2017 00:00:00 14,2 11,2 15 8 - - S 1004,3 10 0 0,0

tt = temperature
td = dewpoint
ff = wind speed
fx = gusts
dd = wind direction
ppp = reduced air pressure
vv = visibility
sd = sunshine duration
rr = precipitation

Next stations